Weather History for Long Prairie, MN

Change the Weather History Date:

Saturday, March 30, 2013

  Actual Average (KAXN) Record (KAXN)
Temperature  
Mean Temperature 38 °F -  
Max Temperature 44 °F 43 °F 75 °F (1968)
Min Temperature 32 °F 25 °F -12 °F (1969)
Degree Days  
Heating Degree Days 27    
Moisture  
Dew Point 33 °F    
Average Humidity 87    
Maximum Humidity 100    
Minimum Humidity 61    
Precipitation  
Precipitation 0.12 in - - ()
Sea Level Pressure  
Sea Level Pressure 29.89 in    
Wind  
Wind Speed 7 mph (WSW)    
Max Wind Speed 20 mph    
Max Gust Speed 24 mph    
Visibility 6 miles    
Events Fog , Snow , Thunderstorm    
Averages and records for this station are not official NWS values.
T = Trace of Precipitation, MM = Missing Value Source: NWS Daily Summary

Daily Weather History Graph

Daily Weather History Graph

Search for Another Location

Airport:

Trip Planner

Search our weather history database for the weather conditions in past years. The results will help you decide how hot, cold, wet, or windy it might be!

Date:

Astronomy

Mar. 30, 2013 Rise Set
Actual Time 7:02 AM CDT 7:45 PM CDT
Civil Twilight 6:32 AM CDT 8:15 PM CDT
Nautical Twilight 5:56 AM CDT 8:51 PM CDT
Astronomical Twilight 5:19 AM CDT 9:29 PM CDT
Moon No Moon Rise 8:46 AM CDT (3/30)
Length of Visible Light 13h 43m
Length of Day
12h 42m
Waning Gibbous, 86% of the Moon is Illuminated
Mar 30
Waning Gibbous
Apr 2
Last Quarter
Apr 10
New
Apr 18
First Quarter
Apr 25
Full

Hourly Weather History & Observations

Time (CDT) Temp. Windchill Dew Point Humidity Pressure Visibility Wind Dir Wind Speed Gust Speed Precip Events Conditions
12:15 AM 37.4 °F 30.8 °F 33.8 °F 87% 29.97 in 10.0 mi ESE 9.2 mph - N/A   Overcast
12:35 AM 37.4 °F 30.8 °F 33.8 °F 87% 29.96 in 10.0 mi ESE 9.2 mph - N/A   Mostly Cloudy
12:55 AM 37.4 °F 31.4 °F 33.8 °F 87% 29.94 in 10.0 mi ESE 8.1 mph - N/A Thunderstorm Thunderstorm
1:15 AM 37.4 °F 32.8 °F 33.8 °F 87% 29.95 in 10.0 mi SE 5.8 mph - N/A Thunderstorm Thunderstorm
1:35 AM 37.4 °F - 33.8 °F 87% 29.97 in 10.0 mi Calm Calm - N/A Thunderstorm Overcast
2:15 AM 35.6 °F 24.8 °F 33.8 °F 93% 29.91 in 2.5 mi SE 19.6 mph 24.2 mph 0.03 in Snow Light Snow
2:35 AM 35.6 °F 27.1 °F 33.8 °F 93% 29.91 in 2.5 mi SSE 12.7 mph - 0.05 in Thunderstorm Thunderstorm
2:55 AM 35.6 °F 25.5 °F 35.6 °F 100% 29.89 in 4.0 mi SSE 17.3 mph 21.9 mph 0.07 in   Overcast
3:15 AM 35.6 °F 28.6 °F 35.6 °F 100% 29.89 in 4.0 mi SSE 9.2 mph - N/A   Overcast
3:35 AM 35.6 °F 25.9 °F 35.6 °F 100% 29.88 in 4.0 mi SE 16.1 mph - N/A   Overcast
4:15 AM 35.6 °F 28.0 °F 35.6 °F 100% 29.88 in 7.0 mi South 10.4 mph - N/A   Overcast
4:35 AM 35.6 °F 29.9 °F 33.8 °F 93% 29.87 in 7.0 mi South 6.9 mph - N/A   Overcast
4:55 AM 35.6 °F 28.6 °F 33.8 °F 93% 29.86 in 4.0 mi SSE 9.2 mph - N/A   Overcast
5:15 AM 35.6 °F 29.9 °F 35.6 °F 100% 29.85 in 2.5 mi South 6.9 mph - 0.03 in   Overcast
5:35 AM 35.6 °F - 33.8 °F 93% 29.86 in 5.0 mi Calm Calm - 0.04 in   Overcast
5:55 AM 35.6 °F - 35.6 °F 100% 29.85 in 4.0 mi Calm Calm - 0.05 in   Overcast
6:15 AM 33.8 °F 30.8 °F 33.8 °F 100% 29.86 in 4.0 mi WNW 3.5 mph - N/A   Overcast
6:35 AM 35.6 °F 32.8 °F 33.8 °F 93% 29.86 in 5.0 mi West 3.5 mph - N/A   Overcast
6:55 AM 35.6 °F - 33.8 °F 93% 29.87 in 4.0 mi Calm Calm - N/A   Mostly Cloudy
7:15 AM 33.8 °F - 33.8 °F 100% 29.87 in 3.0 mi Calm Calm - N/A   Scattered Clouds
7:35 AM 32.0 °F 28.7 °F 32.0 °F 100% 29.87 in 0.2 mi SSW 3.5 mph - N/A Fog Fog
7:55 AM 33.8 °F 30.8 °F 33.8 °F 100% 29.88 in 1.0 mi SSW 3.5 mph - N/A   Mist
8:15 AM 32.0 °F - 32.0 °F 100% 29.88 in 0.5 mi Calm Calm - N/A Fog Fog
8:35 AM 35.6 °F 32.8 °F 33.8 °F 93% 29.88 in 1.8 mi West 3.5 mph - N/A   Mist
8:55 AM 35.6 °F 30.7 °F 35.6 °F 100% 29.88 in 3.0 mi West 5.8 mph - N/A   Mostly Cloudy
9:15 AM 35.6 °F 29.9 °F 35.6 °F 100% 29.89 in 3.0 mi NW 6.9 mph - N/A   Overcast
9:35 AM 35.6 °F 30.7 °F 35.6 °F 100% 29.89 in 1.0 mi NW 5.8 mph - N/A   Overcast
9:55 AM 35.6 °F 29.2 °F 35.6 °F 100% 29.89 in 0.8 mi WNW 8.1 mph - N/A   Overcast
10:15 AM 35.6 °F 29.2 °F 35.6 °F 100% 29.89 in 0.8 mi WNW 8.1 mph - N/A   Overcast
10:35 AM 35.6 °F 30.7 °F 35.6 °F 100% 29.90 in 1.0 mi WNW 5.8 mph - N/A   Overcast
10:55 AM 37.4 °F 33.8 °F 35.6 °F 93% 29.89 in 2.5 mi NW 4.6 mph - N/A   Overcast
11:15 AM 37.4 °F 32.1 °F 35.6 °F 93% 29.90 in 3.0 mi West 6.9 mph - N/A   Overcast
11:35 AM 37.4 °F 32.1 °F 35.6 °F 93% 29.90 in 4.0 mi WNW 6.9 mph - N/A   Overcast
11:55 AM 39.2 °F 33.6 °F 35.6 °F 87% 29.90 in 7.0 mi West 8.1 mph - N/A   Scattered Clouds
12:15 PM 39.2 °F 33.6 °F 33.8 °F 81% 29.90 in 10.0 mi West 8.1 mph - N/A   Clear
12:35 PM 41.0 °F 35.2 °F 33.8 °F 76% 29.90 in 10.0 mi West 9.2 mph - N/A   Clear
1:15 PM 41.0 °F 39.0 °F 33.8 °F 76% 29.90 in 10.0 mi West 3.5 mph - N/A   Clear
1:35 PM 41.0 °F 38.0 °F 33.8 °F 76% 29.90 in 10.0 mi West 4.6 mph - N/A   Clear
1:55 PM 41.0 °F 37.1 °F 33.8 °F 76% 29.90 in 10.0 mi West 5.8 mph - N/A   Clear
2:15 PM 41.0 °F 38.0 °F 33.8 °F 76% 29.90 in 10.0 mi West 4.6 mph - N/A   Clear
2:35 PM 42.8 °F 40.1 °F 33.8 °F 70% 29.90 in 10.0 mi WNW 4.6 mph - N/A   Clear
2:55 PM 42.8 °F 37.5 °F 33.8 °F 70% 29.90 in 10.0 mi WSW 9.2 mph - N/A   Clear
3:15 PM 42.8 °F 37.5 °F 33.8 °F 70% 29.90 in 10.0 mi West 9.2 mph - N/A   Clear
3:35 PM 42.8 °F 38.0 °F 33.8 °F 70% 29.90 in 10.0 mi West 8.1 mph - N/A   Clear
3:55 PM 42.8 °F 37.5 °F 33.8 °F 70% 29.90 in 7.0 mi West 9.2 mph - N/A   Clear
4:15 PM 42.8 °F 39.3 °F 33.8 °F 70% 29.90 in 7.0 mi West 5.8 mph - N/A   Clear
4:35 PM 42.8 °F 38.6 °F 32.0 °F 66% 29.89 in 10.0 mi West 6.9 mph - N/A   Clear
4:55 PM 44.6 °F 40.7 °F 32.0 °F 61% 29.89 in 10.0 mi West 6.9 mph - N/A   Clear
5:15 PM 44.6 °F 41.4 °F 32.0 °F 61% 29.88 in 10.0 mi WSW 5.8 mph - N/A   Clear
5:35 PM 44.6 °F 40.7 °F 32.0 °F 61% 29.88 in 10.0 mi West 6.9 mph - N/A   Clear
5:55 PM 42.8 °F 40.1 °F 32.0 °F 66% 29.88 in 10.0 mi WSW 4.6 mph - N/A   Clear
6:15 PM 42.8 °F 39.3 °F 32.0 °F 66% 29.88 in 10.0 mi WSW 5.8 mph - N/A   Clear
6:35 PM 41.0 °F 35.8 °F 32.0 °F 70% 29.88 in 7.0 mi WSW 8.1 mph - N/A   Clear
6:55 PM 39.2 °F 33.6 °F 32.0 °F 75% 29.88 in 7.0 mi WSW 8.1 mph - N/A   Clear
7:15 PM 37.4 °F 31.4 °F 32.0 °F 81% 29.88 in 5.0 mi WSW 8.1 mph - N/A   Haze
7:35 PM 35.6 °F 29.2 °F 32.0 °F 87% 29.88 in 5.0 mi WSW 8.1 mph - N/A   Haze
7:55 PM 33.8 °F 27.7 °F 32.0 °F 93% 29.88 in 5.0 mi WSW 6.9 mph - N/A   Clear
8:15 PM 33.8 °F 27.0 °F 32.0 °F 93% 29.88 in 7.0 mi SW 8.1 mph - N/A   Clear
8:35 PM 33.8 °F 27.7 °F 30.2 °F 87% 29.88 in 7.0 mi WSW 6.9 mph - N/A   Clear
8:55 PM 32.0 °F 25.6 °F 30.2 °F 93% 29.88 in 7.0 mi WSW 6.9 mph - N/A   Clear
9:15 PM 32.0 °F 25.6 °F 30.2 °F 93% 29.88 in 7.0 mi WSW 6.9 mph - N/A   Clear
9:35 PM 32.0 °F 24.8 °F 30.2 °F 93% 29.88 in 7.0 mi WSW 8.1 mph - N/A   Clear
9:55 PM 32.0 °F 24.2 °F 30.2 °F 93% 29.88 in 7.0 mi West 9.2 mph - N/A   Clear
10:15 PM 32.0 °F 25.6 °F 30.2 °F 93% 29.88 in 7.0 mi West 6.9 mph - N/A   Clear
10:35 PM 32.0 °F 26.4 °F 30.2 °F 93% 29.89 in 7.0 mi West 5.8 mph - N/A   Clear
10:55 PM 32.0 °F 24.8 °F 30.2 °F 93% 29.89 in 5.0 mi West 8.1 mph - N/A   Clear
11:15 PM 32.0 °F 25.6 °F 30.2 °F 93% 29.88 in 5.0 mi West 6.9 mph - N/A   Scattered Clouds
11:35 PM 32.0 °F 25.6 °F 30.2 °F 93% 29.88 in 5.0 mi West 6.9 mph - N/A   Mostly Cloudy
11:55 PM 32.0 °F 25.6 °F 30.2 °F 93% 29.88 in 5.0 mi WSW 6.9 mph - N/A   Scattered Clouds